Вернуться в каталог

STARLINK-36367

АктивенСвязьVLEO
NORAD 67629·PAYLOAD·🇺🇸 United States

Запущен Jan 30, 2026 с Cape Canaveral Space Force Station

Loading…

Ближайшие Пролёты (ближайшие 24 часа)

TLE

СвежийSource: CelesTrak SupGP

Эпоха: Sep 14, 2026, 22:43 UTC

1 67629C 26020N   26257.94701389 -.00069743  00000+0 -25264-2 0  2571
2 67629  43.0026 150.6983 0001361 273.2509 352.8971 15.27609801    13

Отслеживайте STARLINK-36367 в реальном времени с AllMySat

Download on the App Store